[[{"header":{"parameterUnit":"m.s-1","parameterCategory":1,"la1":30.2991,"la2":30.254,"lo1":-89.0895,"lo2":-89.0444,"dy":0.0017,"dx":0.0017,"nx":28,"ny":28,"refTime":"2023-08-04T03:00:00:Z","depth":0,"parameterNumber":2,"parameterNumberName":"U-component_of_WINDS"},"data":[0,0,0,0,0,0,0,0,0,0,0,0,0,0,0,0,0,0,0,0,0,0,0,0,0,0,0,0,0,0,0,0,0,0,0,0,0,0,0,0,0,0,0,0,0,0,0,0,0,0,0,0,0,0,0,0,0,0,4.9907,4.9908,0,5.0055,5.0057,5.0058,4.9992,4.9988,4.9984,4.9981,5.0138,5.0146,5.0153,0,0,0,0,0,0,0,0,0,0,0,0,0,4.9571,4.9577,4.9906,4.9908,4.991,5.0055,5.0057,5.0059,4.9992,4.9988,4.9983,4.9979,5.0136,5.0145,5.0154,0,0,0,0,0,0,0,0,0,0,0,0,0,4.9718,4.9579,4.9906,4.9894,4.9895,5.0054,5.0057,5.0059,4.9993,4.9988,4.9982,4.9977,5.0133,5.0144,5.0155,5.0337,0,0,5.019,5.0195,0,0,0,0,0,0,0,0,4.971,4.973,4.9894,4.9895,4.9896,4.9999,4.9996,5.0153,4.9995,4.9956,4.9981,4.9974,5.0097,5.0111,5.0151,5.0344,5.0351,5.0191,5.0198,5.0203,5.0207,0,0,0,0,0,0,0,4.9699,4.9724,4.9965,4.9897,4.9898,4.9883,4.9898,5.0025,5.0056,4.9959,4.9954,4.9973,5.0096,5.014,5.0154,5.0353,5.0191,5.0201,5.0208,5.0213,5.0704,5.071,0,0,0,0,0,0,4.9689,4.9715,4.9961,4.997,4.9787,4.9894,4.991,4.9972,5.0054,5.0061,4.9977,4.9969,5.0123,5.0141,5.016,5.0378,5.0203,5.0214,5.0221,5.0698,5.0706,5.0712,0,0,0,0,0,0,4.9682,4.9711,4.9955,4.9841,4.9871,4.9906,4.9975,4.9978,5.0021,5.0068,5.0074,5.0016,5.012,5.0144,5.0293,5.0383,5.0219,5.023,5.0691,5.0701,5.0709,5.0817,0,0,0,0,0,0,4.9672,4.9709,4.9777,4.9843,4.9878,5.0084,4.998,4.9984,5.0041,5.0031,5.0106,5.0113,5.0117,5.0277,5.0305,5.0396,5.0238,5.0683,5.0695,5.0706,5.0805,5.0828,5.0848,0,0,0,0,0,4.9661,4.9802,4.9781,4.9811,4.9963,5.0089,5.0109,5.0109,5.0048,5.0118,5.0148,5.0111,5.0368,5.0292,5.0324,5.0419,5.0677,5.0692,5.0705,5.0796,5.0824,5.0848,0,0,0,0,0,0,4.9747,4.9811,4.9788,4.9955,5.0017,5.0078,5.0165,5.0139,5.0222,5.021,5.0208,5.0226,5.0381,5.0415,5.0329,5.06,5.0514,5.0535,5.0572,5.0599,5.062,5.0609,5.0248,0,0,0,0,0,4.9786,4.9881,4.9932,5.0075,5.0107,5.0131,5.0186,5.0181,5.0246,5.0273,5.0314,5.038,5.0476,5.054,5.063,5.081,5.0826,5.0891,5.0913,5.093,5.0948,5.1047,5.1077,5.0758,5.0758,5.0758,0,0,4.9866,4.9913,4.9974,5.0094,5.0141,5.0242,5.0154,5.0264,5.034,5.029,5.0434,5.0467,5.0541,5.0706,5.0781,5.074,5.104,5.0948,5.0961,5.097,5.1064,5.1094,5.1121,5.0768,5.0766,5.0764,0,0,5.0065,5.0109,5.0233,5.0282,5.0355,5.037,5.04,5.0465,5.0485,5.0628,5.0594,5.0684,5.0849,5.0903,5.0953,5.1173,5.1142,5.1203,5.1315,5.1411,5.1436,5.1459,5.1538,5.1566,5.1221,5.1221,5.1221,0,5.0156,5.0305,5.03,5.0414,5.0468,5.0426,5.0553,5.0602,5.0702,5.0741,5.0692,5.0899,5.0946,5.1124,5.1177,5.1219,5.1254,5.1194,5.1433,5.1455,5.1476,5.1551,5.1581,5.1228,5.1227,5.1226,5.1226,0,5.0414,5.0518,5.061,5.0705,5.077,5.089,5.0905,5.0972,5.0961,5.0982,5.113,5.1185,5.1286,5.1328,5.132,5.1506,5.1478,5.1431,5.1345,5.1513,5.1584,5.1613,5.1238,5.1235,5.1233,5.1231,0,0,5.0672,5.0763,5.0797,5.084,5.0917,5.0998,5.1117,5.1214,5.1272,5.1343,5.1443,5.1584,5.1541,5.1597,5.1595,5.1679,5.1851,5.1622,5.1624,5.1663,5.206,5.2095,5.2128,5.1831,5.1836,5.1841,5.2054,0,5.0876,5.1081,5.1081,5.1271,5.1368,5.133,5.1434,5.1493,5.1517,5.1603,5.1629,5.1729,5.1665,5.1699,5.1781,5.1812,5.193,5.1797,5.1926,5.193,5.1908,5.2165,5.2202,5.2401,5.2082,5.2087,5.209,0,5.1142,5.1219,5.1419,5.1482,5.1523,5.1616,5.1706,5.1789,5.1857,5.1867,5.193,5.1915,5.2037,5.1947,5.2117,5.2026,5.2079,5.2102,5.211,5.2122,5.202,5.2185,5.2465,5.2495,5.2134,5.213,5.2127,0,5.131,5.1465,5.1604,5.1642,5.172,5.1786,5.1822,5.1884,5.1943,5.2022,5.2061,5.2154,5.2205,5.2279,5.229,5.2223,5.2461,5.2371,5.2475,5.2475,5.2527,5.2523,5.2819,5.256,5.256,5.2559,5.2559,0,5.1539,5.1663,5.1681,5.1766,5.1905,5.1904,5.2041,5.2072,5.2128,5.222,5.2194,5.2282,5.229,5.2382,5.2391,5.2531,5.2554,5.2568,5.2569,5.257,5.2569,5.2605,5.2592,5.2567,5.2565,5.2564,5.2563,0,5.1751,5.1767,5.1917,5.1978,5.1996,5.2095,5.2148,5.2232,5.2252,5.2369,5.2397,5.243,5.2535,5.2553,5.2679,5.2685,5.2852,5.2839,5.2829,5.2827,5.293,5.292,5.326,5.3305,5.3016,5.3019,5.3021,0,5.1895,5.1989,5.206,5.2119,5.2158,5.2254,5.2314,5.2317,5.2381,5.2465,5.2539,5.2641,5.2724,5.2895,5.2931,5.3027,5.3017,5.3129,5.3031,5.303,5.3019,5.3013,5.3023,5.3148,5.3151,5.3154,5.3156,0,5.2151,5.2155,5.224,5.233,5.2401,5.2473,5.254,5.259,5.2603,5.2676,5.2783,5.2847,5.2974,5.3077,5.3172,5.3211,5.3187,5.3186,5.3215,5.3218,5.3208,5.3215,5.2881,5.3179,5.3176,5.3175,5.3173,5.3173,5.2334,5.2416,5.2479,5.2576,5.2626,5.269,5.2771,5.2801,5.2889,5.2992,5.2989,5.3107,5.3174,5.3299,5.3344,5.3437,5.3402,5.3444,5.3455,5.3465,5.3475,5.3193,5.3455,5.3454,5.3454,5.3453,5.3453,0,5.2589,5.2627,5.2716,5.281,5.2887,5.2855,5.2928,5.2995,5.3098,5.3162,5.3243,5.3366,5.3466,5.351,5.3609,5.3675,5.3667,5.3701,5.3697,5.3706,5.3501,5.3466,5.3707,5.3707,5.3707,5.3706,5.3706,5.3706,5.2731,5.2868,5.2879,5.3042,5.308,5.3193,5.3238,5.3297,5.3347,5.3486,5.3568,5.3595,5.3651,5.3754,5.3845,5.3855,5.3893,5.3933,5.3939,5.3746,5.3721,5.3696,5.3663,5.3941,5.3941,5.4136,5.4138,5.4139]},{"header":{"parameterUnit":"m.s-1","parameterCategory":1,"la1":30.2991,"la2":30.254,"lo1":-89.0895,"lo2":-89.0444,"dy":0.0017,"dx":0.0017,"nx":28,"ny":28,"refTime":"2023-08-04T03:00:00:Z","depth":0,"parameterNumber":3,"parameterNumberName":"V-component_of_WINDS"},"data":[0,0,0,0,0,0,0,0,0,0,0,0,0,0,0,0,0,0,0,0,0,0,0,0,0,0,0,0,0,0,0,0,0,0,0,0,0,0,0,0,0,0,0,0,0,0,0,0,0,0,0,0,0,0,0,0,0,0,-0.9874,-0.9874,0,-0.9876,-0.9876,-0.9876,-0.9881,-0.9881,-0.9881,-0.9881,-0.9882,-0.9882,-0.9882,0,0,0,0,0,0,0,0,0,0,0,0,0,-0.9875,-0.9875,-0.9874,-0.9874,-0.9874,-0.9876,-0.9876,-0.9876,-0.9881,-0.9881,-0.9881,-0.9881,-0.9882,-0.9882,-0.9882,0,0,0,0,0,0,0,0,0,0,0,0,0,-0.9875,-0.9875,-0.9874,-0.9877,-0.9877,-0.9876,-0.9876,-0.9876,-0.9881,-0.9881,-0.9881,-0.9881,-0.9882,-0.9882,-0.9882,-0.9878,0,0,-0.9882,-0.9882,0,0,0,0,0,0,0,0,-0.9875,-0.9875,-0.9876,-0.9877,-0.9877,-0.9878,-0.9876,-0.9876,-0.9881,-0.9879,-0.9881,-0.9882,-0.9881,-0.9881,-0.9881,-0.9878,-0.9878,-0.9882,-0.9882,-0.9882,-0.9882,0,0,0,0,0,0,0,-0.9875,-0.9875,-0.9875,-0.9876,-0.9877,-0.9878,-0.9878,-0.9876,-0.9879,-0.988,-0.988,-0.988,-0.9881,-0.9881,-0.9881,-0.9878,-0.9882,-0.9882,-0.9882,-0.9881,-0.9872,-0.9872,0,0,0,0,0,0,-0.9875,-0.9875,-0.9875,-0.9875,-0.9877,-0.9878,-0.9878,-0.9878,-0.9879,-0.988,-0.988,-0.988,-0.9881,-0.9881,-0.9881,-0.9876,-0.9882,-0.9881,-0.9881,-0.9872,-0.9872,-0.9872,0,0,0,0,0,0,-0.9875,-0.9875,-0.9875,-0.9875,-0.9875,-0.9878,-0.9877,-0.9878,-0.9877,-0.9879,-0.988,-0.9879,-0.9881,-0.9881,-0.9879,-0.9876,-0.9881,-0.9881,-0.9872,-0.9872,-0.9872,-0.9866,0,0,0,0,0,0,-0.9875,-0.9875,-0.9873,-0.9875,-0.9875,-0.9872,-0.9877,-0.9878,-0.9877,-0.9878,-0.9879,-0.9879,-0.9881,-0.9879,-0.9878,-0.9876,-0.9881,-0.9872,-0.9872,-0.9872,-0.9866,-0.9865,-0.9865,0,0,0,0,0,-0.9875,-0.9871,-0.9873,-0.9873,-0.9873,-0.9872,-0.9872,-0.9875,-0.9877,-0.9875,-0.9877,-0.9879,-0.9876,-0.9878,-0.9878,-0.9875,-0.9873,-0.9872,-0.9872,-0.9867,-0.9865,-0.9865,0,0,0,0,0,0,-0.9869,-0.9872,-0.9874,-0.9871,-0.9871,-0.9873,-0.9871,-0.9873,-0.9873,-0.9874,-0.9877,-0.9877,-0.9874,-0.9875,-0.9877,-0.9871,-0.9875,-0.9874,-0.9871,-0.987,-0.9869,-0.9869,-0.9881,0,0,0,0,0,-0.9867,-0.9866,-0.9869,-0.9866,-0.9866,-0.9869,-0.9868,-0.987,-0.9871,-0.9871,-0.9872,-0.9872,-0.9872,-0.9871,-0.987,-0.9867,-0.9867,-0.9865,-0.9864,-0.9863,-0.9862,-0.986,-0.9859,-0.987,-0.987,-0.987,0,0,-0.9864,-0.9865,-0.9864,-0.9865,-0.9865,-0.9864,-0.9869,-0.9867,-0.9866,-0.9871,-0.9868,-0.9869,-0.987,-0.9867,-0.9866,-0.9867,-0.986,-0.9863,-0.9862,-0.9862,-0.986,-0.9859,-0.9858,-0.987,-0.987,-0.987,0,0,-0.9857,-0.9858,-0.9855,-0.9856,-0.9857,-0.9859,-0.9858,-0.986,-0.9861,-0.9859,-0.9862,-0.9861,-0.986,-0.986,-0.986,-0.9853,-0.9856,-0.9853,-0.9849,-0.9847,-0.9846,-0.9845,-0.9843,-0.9842,-0.9853,-0.9853,-0.9853,0,-0.9852,-0.985,-0.9854,-0.9852,-0.9852,-0.9856,-0.9854,-0.9854,-0.9855,-0.9855,-0.9857,-0.9856,-0.9856,-0.9853,-0.9852,-0.9852,-0.9851,-0.9853,-0.9846,-0.9845,-0.9844,-0.9842,-0.9841,-0.9852,-0.9852,-0.9852,-0.9852,0,-0.9844,-0.9843,-0.9841,-0.9842,-0.9842,-0.984,-0.9843,-0.9842,-0.9845,-0.9846,-0.9844,-0.9845,-0.9845,-0.9844,-0.9846,-0.9842,-0.9843,-0.9845,-0.9849,-0.9843,-0.9841,-0.984,-0.9852,-0.9852,-0.9852,-0.9852,0,0,-0.9833,-0.9836,-0.9835,-0.9836,-0.9837,-0.9837,-0.9835,-0.9835,-0.9834,-0.9835,-0.9833,-0.9832,-0.9835,-0.9835,-0.9837,-0.9835,-0.983,-0.9838,-0.9838,-0.9836,-0.9825,-0.9822,-0.9821,-0.9832,-0.9831,-0.9831,-0.9824,0,-0.9826,-0.9823,-0.9826,-0.9822,-0.9821,-0.9826,-0.9824,-0.9825,-0.9827,-0.9826,-0.9828,-0.9827,-0.9831,-0.9831,-0.9829,-0.9831,-0.9827,-0.9831,-0.983,-0.983,-0.9829,-0.982,-0.9818,-0.9811,-0.9824,-0.9824,-0.9823,0,-0.9817,-0.9817,-0.9814,-0.9816,-0.9816,-0.9814,-0.9815,-0.9814,-0.9815,-0.9816,-0.9817,-0.9819,-0.9818,-0.9822,-0.9819,-0.9822,-0.9822,-0.9823,-0.9822,-0.9822,-0.9826,-0.9819,-0.9809,-0.9808,-0.9822,-0.9822,-0.9822,0,-0.9808,-0.9808,-0.9806,-0.9806,-0.9809,-0.9808,-0.9809,-0.981,-0.981,-0.981,-0.981,-0.9811,-0.981,-0.981,-0.9813,-0.9816,-0.9811,-0.9815,-0.9811,-0.9811,-0.9809,-0.9809,-0.9799,-0.981,-0.981,-0.981,-0.981,0,-0.98,-0.9797,-0.9802,-0.9801,-0.9798,-0.9802,-0.9799,-0.9801,-0.9802,-0.9801,-0.9805,-0.9804,-0.9808,-0.9807,-0.9809,-0.9807,-0.9807,-0.9808,-0.9808,-0.9807,-0.9807,-0.9806,-0.9807,-0.981,-0.981,-0.981,-0.981,0,-0.9789,-0.9792,-0.979,-0.9793,-0.9794,-0.9792,-0.9794,-0.9793,-0.9795,-0.9794,-0.9794,-0.9797,-0.9796,-0.9799,-0.9799,-0.9801,-0.9797,-0.9799,-0.9797,-0.9797,-0.9793,-0.9793,-0.9782,-0.978,-0.9793,-0.9793,-0.9793,0,-0.9783,-0.9782,-0.9784,-0.9784,-0.9785,-0.9784,-0.9784,-0.9788,-0.9788,-0.979,-0.9788,-0.9788,-0.9788,-0.9787,-0.9789,-0.9789,-0.979,-0.9786,-0.979,-0.9789,-0.979,-0.979,-0.979,-0.9785,-0.9785,-0.9785,-0.9785,0,-0.9772,-0.9774,-0.9774,-0.9775,-0.9774,-0.9775,-0.9776,-0.9775,-0.978,-0.9779,-0.9779,-0.9779,-0.9779,-0.9779,-0.9779,-0.978,-0.9783,-0.9784,-0.9783,-0.9781,-0.978,-0.978,-0.9794,-0.9784,-0.9784,-0.9784,-0.9784,-0.9784,-0.9764,-0.9762,-0.9764,-0.9764,-0.9765,-0.9766,-0.9765,-0.9767,-0.9767,-0.9767,-0.977,-0.9769,-0.9771,-0.9772,-0.9772,-0.9772,-0.9774,-0.9773,-0.9772,-0.9772,-0.9771,-0.9781,-0.9772,-0.9772,-0.9772,-0.9772,-0.9772,0,-0.9752,-0.9754,-0.9754,-0.9755,-0.9755,-0.9758,-0.9759,-0.9759,-0.9758,-0.976,-0.976,-0.9759,-0.9759,-0.9762,-0.9762,-0.9761,-0.9762,-0.9761,-0.9761,-0.9761,-0.9769,-0.977,-0.976,-0.976,-0.976,-0.976,-0.976,-0.976,-0.9746,-0.9744,-0.9746,-0.9745,-0.9747,-0.9746,-0.9746,-0.9747,-0.9748,-0.9748,-0.9748,-0.975,-0.9751,-0.9752,-0.9752,-0.9753,-0.9752,-0.975,-0.9751,-0.9759,-0.976,-0.9761,-0.9762,-0.975,-0.975,-0.9743,-0.9743,-0.9743]}]]